Location: Danville Conservation Area
(38.8674°N, 91.5143°W)
Time: 00:40:06
(UTC-06:00)

Envisat - Pass Details

Date: 02 December 2021
Orbit: 764 x 766 km, 98.2° (Epoch: 23 January)

Event Time Altitude Azimuth Distance (km) Brightness Sun altitude
Rises 04:09:22 0° 27° (NNE) 3,239 6.5 -33.9°
Reaches altitude 10° 04:12:07 10° 41° (NE) 2,308 5.9 -33.4°
Maximum altitude 04:16:12 24° 94° (E) 1,539 5.1 -32.6°
Drops below altitude 10° 04:20:16 10° 148° (SSE) 2,294 5.8 -31.8°
Sets 04:22:58 0° 162° (SSE) 3,214 6.5 -31.3°
